STARLINK-34025, 63824

Orbit data source: Space-Track

STARLINK-34025, 63824 is a payload satellite owned by SpaceX/Seattle (US) in LEO that was launched on Sun, 04 May 2025 UTC via an FALCON 9 launch vehicle from the Air Force Eastern Test Range (AFETR). Payload-class satellites include a variety of spacecraft equipped with specific instruments for various scientific and technological missions. These include communications satellites like Starlink; space stations such as the ISS; scientific satellites like the Hubble; Earth observation satellites from companies like Planet Labs, Umbra, and HawkEye 360; GPS; miniature CubeSats for education and research; and military/defense satellites.

Loading next visibility...
Identifier
63824, 2025-092W
Orbit
LEO
Country
Flag of USUS
Related business
Manufacturer
SpaceX/Seattle
Mission
Operational Commercial Communications
Bus & Motor
STARLINK V2MO, Unknown motor
Mass
575 kg wet, ~530 kg dry
Launch date (UTC)
2025-05-04 (5 months ago)
Launch vehicle
FALCON 9
Launch site
Air Force Eastern Test Range (AFETR)
Object type
Payload
Rocket body
Debris
Shape & HBR
Box + 2 Pan, 17.7 m
Radar Cross Section
36.964 m², Large (>1 m²)

Expand to show TLE details & history
Last TLE update: 17 hours ago

TLE from 17 hours ago
0 STARLINK-34025
1 63824U 25092W   25286.27493598  .00036749  00000-0  13377-2 0  9993
2 63824  43.0025 284.7052 0002270 272.6851  87.3741 15.27594155 26012
Epoch: 2025-10-13T06:35Z
TLE epoch observation values (Epoch: 2025-10-13T06:35:54.468Z)
Latitude
-0.00001°
Longitude
163.64818°
Altitude
482.711 km
Speed
7.626 km/s
True Right ascension
18h 58m 49s
True Declination
0° 00' 00"
Sunlit
Object was in daylight at epoch
Visualization orbit readout
Latitude
Unknown
Longitude
Unknown
Altitude
Unknown
Speed
Unknown
Apparent Right ascension
Unknown
Apparent Declination
Unknown
Sunlit
N/A
Visualization observer readout
Local Sidereal Time
18:35:52
Azimuth
Unknown
Elevation
Unknown
Doppler factor
Unknown
Orbital elements
Apogee altitude
486.509 km
Perigee altitude
483.394 km
Semi-major axis
6,863.088 km
Eccentricity
0.00023
Inclination
43.0025°
RAAN
284.7052°
Arg. of periapsis
272.6851°
True anomaly
87.40009°
Mean anomaly
87.3741°
Eccentric anomaly
87.38709°
Mean motion
3.81737 °/min
Orbital period
94.31 mins
BSTAR
0.0013377
Loading maneuver chart data...
Computing Atmospheric mass density...
Loading historical data...
Loading historical data...
Loading historical data...
Loading historical data...
Loading historical data...
Loading historical data...
Loading historical data...

Documentation

Showing up to 5 results
|